Powrót do katalogu

ONEWEB-0360

AktywnyŁącznośćPO
NORAD 49286·PAYLOAD·🇬🇧 United Kingdom

Wystrzelony Oct 14, 2021 z Vostochny Cosmodrome

Loading…

Następne Przeloty (najbliższe 24 godziny)

TLE

ŚwieżeSource: CelesTrak SupGP

Epoka: Sep 14, 2026, 10:22 UTC

1 49286C 21090H   26257.43243472  .00002059  00000+0  50698-2 0  2574
2 49286  87.9135 256.6382 0001913  90.1180  21.9745 13.20769145    16

Śledź ONEWEB-0360 w czasie rzeczywistym z AllMySat

Download on the App Store